Location: Cheyres
(46.8153°N, 6.7877°E)
Time: 11:39:37
(UTC+00:00)

Envisat - Visible Passes

Search period start: 26 January 2022 00:00
Search period end: 05 February 2022 00:00
Orbit: 764 x 766 km, 98.2° (Epoch: 26 January)

Date Brightness Start Highest point End Pass type
(mag) Time Alt. Az. Time Alt. Az. Time Alt. Az.
26 Jan 3.3 04:20:21 10° NNE 04:25:26 65° ESE 04:30:28 10° S visible
26 Jan 4.2 06:00:22 10° NNW 06:03:57 20° WNW 06:07:33 10° WSW visible
27 Jan 4.7 03:43:52 10° NNE 03:48:22 31° E 03:52:51 10° SSE visible
27 Jan 3.4 05:22:46 10° N 05:27:26 38° WNW 05:32:05 10° SW visible
28 Jan 5.7 03:08:14 10° NE 03:11:07 15° E 03:13:58 10° ESE visible
28 Jan 2.8 04:45:37 10° N 04:50:43 77° WNW 04:55:47 10° SSW visible
28 Jan 4.7 06:26:46 10° NNW 06:28:52 13° NW 06:30:59 10° W visible
29 Jan 3.7 04:08:49 10° NNE 04:13:48 52° E 04:18:44 10° S visible
29 Jan 4.0 05:48:29 10° N 05:52:29 24° WNW 05:56:29 10° WSW visible
29 Jan 6.2 17:08:42 10° WSW 17:10:52 13° W 17:13:02 10° WNW visible
30 Jan 5.0 03:32:30 10° NE 03:36:41 25° E 03:40:49 10° SSE visible
30 Jan 3.2 05:11:03 10° N 05:15:54 46° WNW 05:20:44 10° SW visible
31 Jan 5.9 02:57:34 10° ENE 02:59:20 12° E 03:01:07 10° ESE visible
31 Jan 2.9 04:34:00 10° NNE 04:39:08 86° ESE 04:44:13 10° SSW visible
31 Jan 4.5 06:14:33 10° NNW 06:17:27 15° WNW 06:20:20 10° W visible
01 Feb 4.1 03:57:20 10° NNE 04:02:09 41° E 04:06:55 10° SSE visible
01 Feb 3.8 05:36:40 10° N 05:41:00 29° WNW 05:45:20 10° WSW visible
02 Feb 5.3 03:21:15 10° NE 03:24:57 20° E 03:28:39 10° SE visible
02 Feb 3.0 04:59:22 10° N 05:04:21 58° WNW 05:09:20 10° SSW visible
03 Feb 3.2 04:22:25 10° NNE 04:27:31 69° ESE 04:32:34 10° S visible
03 Feb 4.3 06:02:32 10° NNW 06:06:00 19° WNW 06:09:27 10° WSW visible
04 Feb 4.6 03:45:53 10° NNE 03:50:28 33° E 03:55:02 10° SSE visible
04 Feb 3.5 05:24:53 10° N 05:29:30 35° WNW 05:34:05 10° SW visible
